Preview of NWS' New Version of Forecast
This preview is not operational and should not be used for support decisions.

Regional Weather Roundup (RWR)

Issued by National Weather Service (NWS)

                            
000
ASUS46 KSEW 152110
RWRWA 

WASHINGTON REGIONAL WEATHER ROUNDUP
NATIONAL WEATHER SERVICE SEATTLE WA
200 PM PDT SUN SEP 15 2019

NOTE:"FAIR" INDICATES FEW OR NO CLOUDS BELOW 12,000 FEET WITH NO 
SIGNIFICANT WEATHER AND/OR OBSTRUCTIONS TO VISIBILITY.

WAZ507-509-555>559-152200-
SEATTLE, TACOMA, EVERETT, AND VICINITY
  
CITY           SKY/WX    TMP DP  RH WIND       PRES   REMARKS
EVERETT        CLOUDY    57  54  89 SE12      29.75S                  
BOEING FIELD   CLOUDY    61  55  81 S9        29.75S                  
RENTON         CLOUDY    61  56  83 SE7       29.75S HAZE             
SEATAC AIRPORT CLOUDY    60  54  80 S7        29.76R                  
JBLM-MCCHORD   CLOUDY    61  61 100 SW8       29.76S                  
PUYALLUP       CLOUDY    61  59  94 VRB6      29.77R                  
BREMERTON      LGT RAIN  57  55  93 S9        29.75R                  
JBLM-FT LEWIS  CLOUDY    59  59 100 S14G20    29.75S                  
TACOMA NARROWS CLOUDY    57  55  93 S8        29.76S                  
$$
 
WAZ001-503-506-510-514-515-152200-
NORTH INTERIOR
  
CITY           SKY/WX    TMP DP  RH WIND       PRES   REMARKS
BELLINGHAM     CLOUDY    58  54  86 S12       29.71F                  
FRIDAY HARBOR  CLOUDY    59  55  87 SE12      29.72F                  
EASTSOUND      CLOUDY    59  57  94 S13       29.70F                  
PORT ANGELES   PTSUNNY   59  55  87 N5        29.71S                  
EDIZ HOOK      FAIR      57  56  96 N3        29.70S                  
PORT TOWNSEND  CLOUDY    61  57  88 S7G14     29.71S                  
NAS WHIDBEY    CLOUDY    62  54  74 SE17G24   29.76S                  
ARLINGTON      CLOUDY    59  54  83 SE6       29.75S                  
BURLINGTON     PTSUNNY   63  55  77 SE12G20   29.74S                  
$$
 
WAZ020-022-039-040-504-511-512-152200-
SOUTHWEST INTERIOR
  
CITY           SKY/WX    TMP DP  RH WIND       PRES   REMARKS
SHELTON        CLOUDY    63  55  75 SW9       29.72S                  
OLYMPIA        CLOUDY    58  56  93 S12       29.76R                  
CHEHALIS       DRIZZLE   59  59 100 S6        29.77S                  
KELSO          CLOUDY    61  55  81 S6        29.79R                  
VANCOUVER      LGT RAIN  60  57  89 SE10      29.79F FOG              
SCAPPOOSE, OR  RAIN      59  57  93 VRB3      29.78S FOG              
PORTLAND, OR   LGT RAIN  60  57  89 E14       29.79F                  
$$
 
WAZ021-516-517-152200-
WASHINGTON COAST
  
CITY           SKY/WX    TMP DP  RH WIND       PRES   REMARKS
FORKS          PTSUNNY   65  54  67 SW9       29.71R                  
HOQUIAM        CLOUDY    63  59  87 SW13      29.74S                  
ASTORIA, OR    CLOUDY    61  57  87 S9        29.75F                  
$$
 
WAZ019-023-024-040-567>569-152200-
CASCADE MOUNTAINS AND COLUMBIA GORGE
  
CITY           SKY/WX    TMP DP  RH WIND       PRES   REMARKS
STAMPEDE PASS  NOT AVBL                                               
TROUTDALE, OR  LGT RAIN  60  57  89 E5        29.80F                  
HOOD RIVER, OR CLOUDY    59  50  72 NW8       29.80S                  
THE DALLES, OR CLOUDY    64  49  57 NW17      29.77R                  
$$

WAZ026-027-041>044-520-521-152200-
EAST SLOPES
  
CITY           SKY/WX    TMP DP  RH WIND       PRES   REMARKS
OMAK           LGT RAIN  59  55  87 S8        29.72S                  
WENATCHEE      CLOUDY    59  53  80 W10       29.73S                  
ELLENSBURG     LGT RAIN  58  50  75 NW12      29.75R                  
YAKIMA         CLOUDY    65  50  58 NW5       29.73S                  
SUNNYSIDE ARPT CLOUDY    67  52  57 W10       29.72R                  
YAKIMA TC      LGT RAIN  63  50  63 N7        29.72S                  
$$

WAZ028-034-035-152200-
COLUMBIA BASIN
  
CITY           SKY/WX    TMP DP  RH WIND       PRES   REMARKS
EPHRATA        CLOUDY    66  50  56 SW6       29.71S                  
MOSES LAKE     CLOUDY    67  49  52 NW6       29.72R                  
PASCO          PTSUNNY   80  51  36 NW15G22   29.68S                  
RICHLAND ARPT  CLOUDY    78  50  38 W16G24    29.69                   
HERMISTON, OR  PTSUNNY   77  49  37 W15G28    29.69S                  
$$

WAZ036>038-152200-
NORTHEAST WASHINGTON
  
CITY           SKY/WX    TMP DP  RH WIND       PRES   REMARKS
SPOKANE GEIGER PTSUNNY   75  41  29 SW16G25   29.71S                  
SPOKANE FELTS  MOSUNNY   77  40  26 W10G23    29.70S                  
FAIRCHILD AFB  PTSUNNY   74  40  30 SW16      29.71F                  
COEURDALENE,ID SUNNY     79  44  28 S13G21    29.70F                  
DEER PARK      PTSUNNY   75  41  29 SW20G25   29.70F                  
$$

WAZ029>033-152200-
SOUTHEAST WASHINGTON
  
CITY           SKY/WX    TMP DP  RH WIND       PRES   REMARKS
PULLMAN        SUNNY     76  45  33 W10G16    29.74F                  
LEWISTON, ID   SUNNY     81  46  29 W6        29.65F                  
WALLA WALLA    MOSUNNY   79  46  31 SW6       29.70R                  
PENDLETON, OR  MOSUNNY   74  47  38 W23G31    29.71R                  
$$